• In Deutschland
  • Länderverzeichnis
  • Für 7 Tage
  • Wassertemperatur
  • Satellitenkarten
  • Wetterkarte
  • Widgets
  • user-avatar
    Anmelden

    Stündliche Wetter Crimmitschau

    Heute, 17 Juli, Dienstag

    Zeit Temperatur Niederschläge Wind Luftdruck Luftfeuchtigkeit
    00:00 +18°C° 0,1 mm 1 m/S 735 mmHg 80%
    01:00 +18°C° 0 mm 1 m/S 735 mmHg 80%
    02:00 +16°C° 0 mm 1 m/S 735 mmHg 82%
    03:00 +16°C° 0 mm 1 m/S 735 mmHg 83%
    04:00 +16°C° 0 mm 1 m/S 735 mmHg 84%
    05:00 +17°C° 0 mm 2 m/S 735 mmHg 82%
    06:00 +18°C° 0 mm 2 m/S 736 mmHg 79%
    07:00 +20°C° 0 mm 2 m/S 736 mmHg 73%
    08:00 +23°C° 0 mm 2 m/S 736 mmHg 66%
    09:00 +24°C° 0 mm 3 m/S 736 mmHg 59%
    10:00 +26°C° 0 mm 3 m/S 736 mmHg 52%
    11:00 +27°C° 0 mm 3 m/S 736 mmHg 50%
    12:00 +28°C° 0 mm 4 m/S 736 mmHg 47%
    13:00 +28°C° 0 mm 4 m/S 736 mmHg 44%
    14:00 +28°C° 0 mm 4 m/S 736 mmHg 45%
    15:00 +28°C° 0 mm 4 m/S 735 mmHg 46%
    16:00 +28°C° 0 mm 4 m/S 735 mmHg 46%
    17:00 +27°C° 0 mm 4 m/S 735 mmHg 52%
    18:00 +26°C° 0 mm 4 m/S 735 mmHg 57%
    19:00 +24°C° 0 mm 3 m/S 735 mmHg 63%
    20:00 +22°C° 0 mm 3 m/S 736 mmHg 64%
    21:00 +21°C° 0 mm 3 m/S 736 mmHg 66%
    22:00 +20°C° 0 mm 3 m/S 736 mmHg 67%
    23:00 +19°C° 0 mm 3 m/S 736 mmHg 70%

    Morgen, 18 Juli, Mittwoch

    Zeit Temperatur Niederschläge Wind Luftdruck Luftfeuchtigkeit
    00:00 +19°C° 0 mm 2 m/S 736 mmHg 73%
    01:00 +18°C° 0 mm 2 m/S 736 mmHg 76%
    02:00 +17°C° 0 mm 2 m/S 736 mmHg 79%
    03:00 +17°C° 0 mm 2 m/S 736 mmHg 81%
    04:00 +17°C° 0 mm 3 m/S 737 mmHg 83%
    05:00 +17°C° 0 mm 3 m/S 737 mmHg 83%
    06:00 +18°C° 0 mm 3 m/S 737 mmHg 82%
    07:00 +19°C° 0 mm 4 m/S 737 mmHg 81%
    08:00 +20°C° 0 mm 4 m/S 738 mmHg 76%
    09:00 +21°C° 0 mm 4 m/S 738 mmHg 71%
    10:00 +23°C° 0 mm 5 m/S 738 mmHg 66%
    11:00 +23°C° 0,1 mm 5 m/S 738 mmHg 63%
    12:00 +25°C° 0,1 mm 5 m/S 738 mmHg 59%
    13:00 +26°C° 0,1 mm 5 m/S 738 mmHg 55%
    14:00 +26°C° 0 mm 5 m/S 738 mmHg 54%
    15:00 +26°C° 0 mm 5 m/S 738 mmHg 54%
    16:00 +26°C° 0 mm 5 m/S 738 mmHg 53%
    17:00 +23°C° 0 mm 4 m/S 738 mmHg 57%
    18:00 +22°C° 0 mm 3 m/S 738 mmHg 62%
    19:00 +21°C° 0 mm 2 m/S 738 mmHg 66%
    20:00 +20°C° 0 mm 2 m/S 738 mmHg 69%
    21:00 +19°C° 0 mm 2 m/S 739 mmHg 71%
    22:00 +18°C° 0 mm 2 m/S 739 mmHg 73%
    23:00 +17°C° 0 mm 2 m/S 739 mmHg 75%

    übermorgen, 19 Juli, Donnerstag

    Zeit Temperatur Niederschläge Wind Luftdruck Luftfeuchtigkeit
    00:00 +17°C° 0 mm 2 m/S 739 mmHg 77%
    01:00 +16°C° 0 mm 2 m/S 739 mmHg 79%
    02:00 +15°C° 0 mm 2 m/S 739 mmHg 81%
    03:00 +15°C° 0 mm 2 m/S 739 mmHg 83%
    04:00 +14°C° 0 mm 2 m/S 739 mmHg 85%
    05:00 +15°C° 0 mm 2 m/S 739 mmHg 81%
    06:00 +16°C° 0 mm 2 m/S 739 mmHg 78%
    07:00 +17°C° 0 mm 2 m/S 740 mmHg 75%
    08:00 +18°C° 0 mm 3 m/S 740 mmHg 69%
    09:00 +20°C° 0 mm 3 m/S 740 mmHg 63%
    10:00 +22°C° 0 mm 3 m/S 740 mmHg 58%
    11:00 +22°C° 0 mm 3 m/S 740 mmHg 54%
    12:00 +24°C° 0 mm 3 m/S 740 mmHg 50%
    13:00 +25°C° 0 mm 3 m/S 740 mmHg 47%
    14:00 +25°C° 0 mm 3 m/S 739 mmHg 46%
    15:00 +26°C° 0 mm 3 m/S 739 mmHg 46%
    16:00 +26°C° 0 mm 3 m/S 739 mmHg 46%
    17:00 +25°C° 0 mm 2 m/S 739 mmHg 51%
    18:00 +24°C° 0 mm 2 m/S 739 mmHg 56%
    19:00 +23°C° 0 mm 1 m/S 739 mmHg 61%
    20:00 +21°C° 0 mm 1 m/S 739 mmHg 64%
    21:00 +19°C° 0 mm 1 m/S 739 mmHg 67%
    22:00 +15°C° 0 mm 0 m/S 739 mmHg 71%
    23:00 +16°C° 0 mm 1 m/S 739 mmHg 73%

    20 Juli, Freitag

    Zeit Temperatur Niederschläge Wind Luftdruck Luftfeuchtigkeit
    00:00 +15°C° 0 mm 1 m/S 739 mmHg 75%
    01:00 +15°C° 0 mm 1 m/S 739 mmHg 78%
    02:00 +14°C° 0 mm 1 m/S 739 mmHg 80%
    03:00 +14°C° 0 mm 1 m/S 739 mmHg 83%
    04:00 +14°C° 0 mm 1 m/S 739 mmHg 85%
    05:00 +15°C° 0 mm 1 m/S 739 mmHg 80%
    06:00 +18°C° 0 mm 1 m/S 739 mmHg 75%
    07:00 +19°C° 0 mm 1 m/S 739 mmHg 70%
    08:00 +21°C° 0 mm 1 m/S 739 mmHg 65%
    09:00 +23°C° 0 mm 1 m/S 739 mmHg 59%
    10:00 +25°C° 0 mm 1 m/S 739 mmHg 54%
    11:00 +26°C° 0 mm 1 m/S 739 mmHg 50%
    12:00 +27°C° 0 mm 1 m/S 739 mmHg 47%
    13:00 +27°C° 0 mm 1 m/S 738 mmHg 44%
    14:00 +27°C° 0 mm 1 m/S 738 mmHg 44%
    15:00 +27°C° 0 mm 1 m/S 738 mmHg 44%
    16:00 +27°C° 0 mm 1 m/S 737 mmHg 44%
    17:00 +26°C° 0 mm 1 m/S 737 mmHg 49%
    18:00 +25°C° 0 mm 1 m/S 737 mmHg 55%
    19:00 +24°C° 0 mm 1 m/S 736 mmHg 61%
    20:00 +22°C° 0 mm 1 m/S 736 mmHg 64%
    21:00 +21°C° 0 mm 1 m/S 736 mmHg 67%
    22:00 +19°C° 0 mm 1 m/S 736 mmHg 69%
    23:00 +19°C° 0 mm 1 m/S 736 mmHg 71%

    21 Juli, Samstag

    Zeit Temperatur Niederschläge Wind Luftdruck Luftfeuchtigkeit
    00:00 +18°C° 0 mm 1 m/S 736 mmHg 73%
    01:00 +18°C° 0 mm 1 m/S 736 mmHg 74%
    02:00 +16°C° 0 mm 1 m/S 736 mmHg 76%
    03:00 +16°C° 0 mm 1 m/S 736 mmHg 77%
    04:00 +16°C° 0 mm 1 m/S 735 mmHg 78%
    05:00 +18°C° 0 mm 1 m/S 736 mmHg 74%
    06:00 +19°C° 0 mm 1 m/S 736 mmHg 71%
    07:00 +21°C° 0 mm 1 m/S 736 mmHg 68%
    08:00 +22°C° 0 mm 1 m/S 736 mmHg 63%
    09:00 +24°C° 0 mm 1 m/S 736 mmHg 58%
    10:00 +26°C° 0 mm 1 m/S 736 mmHg 53%
    11:00 +26°C° 0,1 mm 1 m/S 736 mmHg 52%
    12:00 +27°C° 0,1 mm 1 m/S 735 mmHg 51%
    13:00 +27°C° 0,1 mm 1 m/S 735 mmHg 51%
    14:00 +27°C° 0,3 mm 2 m/S 735 mmHg 53%
    15:00 +27°C° 0,3 mm 2 m/S 735 mmHg 56%
    16:00 +27°C° 0,3 mm 2 m/S 735 mmHg 58%
    17:00 +26°C° 0,4 mm 2 m/S 735 mmHg 62%
    18:00 +25°C° 0,4 mm 2 m/S 735 mmHg 67%
    19:00 +24°C° 0,4 mm 1 m/S 735 mmHg 71%
    20:00 +22°C° 0,7 mm 1 m/S 735 mmHg 73%
    21:00 +21°C° 0,7 mm 1 m/S 735 mmHg 75%
    22:00 +20°C° 0,7 mm 1 m/S 735 mmHg 77%
    23:00 +19°C° 1 mm 2 m/S 735 mmHg 80%

    22 Juli, Sonntag

    Zeit Temperatur Niederschläge Wind Luftdruck Luftfeuchtigkeit
    00:00 +18°C° 1 mm 2 m/S 735 mmHg 83%
    01:00 +18°C° 1 mm 2 m/S 736 mmHg 86%
    02:00 +18°C° 0,7 mm 2 m/S 736 mmHg 87%
    03:00 +17°C° 0,7 mm 2 m/S 736 mmHg 88%
    04:00 +18°C° 0,7 mm 1 m/S 736 mmHg 89%
    05:00 +17°C° 0,1 mm 2 m/S 736 mmHg 88%
    06:00 +18°C° 0,1 mm 2 m/S 737 mmHg 86%
    07:00 +18°C° 0,1 mm 2 m/S 737 mmHg 84%
    08:00 +19°C° 0 mm 2 m/S 737 mmHg 77%
    09:00 +21°C° 0 mm 3 m/S 738 mmHg 70%
    10:00 +22°C° 0 mm 3 m/S 738 mmHg 63%
    11:00 +24°C° 0,1 mm 3 m/S 738 mmHg 59%
    12:00 +25°C° 0,1 mm 3 m/S 738 mmHg 55%
    13:00 +26°C° 0,1 mm 3 m/S 738 mmHg 51%
    14:00 +26°C° 0 mm 4 m/S 738 mmHg 51%
    15:00 +26°C° 0 mm 4 m/S 738 mmHg 50%
    16:00 +26°C° 0 mm 4 m/S 738 mmHg 50%
    17:00 +25°C° 0 mm 3 m/S 738 mmHg 55%
    18:00 +24°C° 0 mm 3 m/S 738 mmHg 60%
    19:00 +23°C° 0 mm 2 m/S 738 mmHg 66%
    20:00 +21°C° 0 mm 2 m/S 738 mmHg 69%
    21:00 +19°C° 0 mm 2 m/S 738 mmHg 73%
    22:00 +18°C° 0 mm 2 m/S 738 mmHg 77%
    23:00 +17°C° 0 mm 2 m/S 738 mmHg 79%
    Mehr zeigen